Location: Lima
(44.6384°N, 112.5920°W)
Time: 17:10:13
(UTC+00:00)

CAS-4A - Pass Details

Date: 21 April 2024
Orbit: 474 x 491 km, 43.0° (Epoch: 28 May)

Event Time Altitude Azimuth Distance (km) Brightness Sun altitude
Exits shadow 10:22:31 46° 142° (SE) 658 ? -21.0°
Drops below altitude 10° 10:25:47 10° 89° (E) 1,668 ? -20.6°
Enters shadow 11:22:20 -70° 268° (W) 12,469 ? -12.6°
Maximum altitude 12:00:58 70° 182° (S) 520 ? -6.5°
